Regional Weather Roundup
Issued by NWS Grand Forks, ND

Home | Current Version | Previous Version | Graphics & Text | Print | Product List | Glossary On
Versions: 1 2 3 4 5 6 7 8 9 10 11 12 13 14 15 16 17 18 19 20 21 22 23 24 25 26 27 28 29 30 31 32 33 34 35 36 37 38 39 40 41 42 43 44 45 46 47 48 49 50
000
ASUS43 KFGF 300831
RWRFGF
PRAIRIE TO PINES  WEATHER ROUNDUP
NATIONAL WEATHER SERVICE EASTERN NORTH DAKOTA/GRAND FORKS ND
300 AM CDT TUE JUN 30 2015

 **SATELLITE DATA USED TO AUGMENT SKY COVER AT AUTOMATED STATIONS**
 *****  WEATHER ACROSS EASTERN NORTH DAKOTA  *****

CITY           SKY/WX    TMP DP  RH WIND       PRES   REMARKS
GRAND FORKS    PTCLDY    56  55  97 NW5       29.94S FOG
GRAND FRKS AFB PTCLDY    58  57  95 N5        29.95S
GRAND FRKS NWS   N/A     57 N/A N/A N3          N/A
DEVILS LAKE    MOCLDY    61  55  82 E5        29.96F
FARGO          PTCLDY    60  57  89 NE5       29.93S
WAHPETON ARPT  PTSUNNY   61  57  88 N5        29.92F
$$

 ***** WEATHER ACROSS CENTRAL AND WESTERN NORTH DAKOTA  *****

CITY           SKY/WX    TMP DP  RH WIND       PRES   REMARKS
BISMARCK       CLOUDY    69  65  86 SE3       29.94S
MINOT          CLOUDY    67  62  84 E7        29.94R
JAMESTOWN      CLOUDY    64  60  87 E5        29.95F
MINOT AFB      CLOUDY    66  66 100 E6        29.94R
GARRISON         N/A     70  62  76 E7        29.95S
WILLISTON      CLOUDY    69  58  67 N5        29.95F HAZE
DICKINSON      CLOUDY    68  61  78 NE5       29.93F
HETTINGER      CLOUDY    66  61  84 NW3       29.94S
$$

 *****  OTHER AIRPORT OBSERVATIONS IN OUR AREA  *****

CITY           SKY/WX    TMP DP  RH WIND       PRES   REMARKS
WALHALLA       FAIR      59  59 100 MISG      29.97F
GRAFTON AIRPOR FAIR      59  59 100 NW6       29.96S
VALLEY CITY AR CLOUDY    61  61 100 NE8       29.95F
CANDO          CLOUDY    59  59 100 E6        29.98S
CAVALIER APRT  FAIR      59  59 100 CALM      29.96F FOG
GWINNER        NOT AVBL
SHEYENNE NWR     N/A     62  59  91 NE6       29.95S
ROLLA          FOG       57  57 100 CALM      30.00S VSB 1/2
 ***** THE ABOVE OBSERVATIONS ARE NON NWS ARE NOT QUALITY
       CONTROLLED AND MAY MIS-REPORT RAIN FOR SNOW...
$$

  *****  WEATHER ACROSS NORTHERN MINNESOTA  *****

CITY           SKY/WX    TMP DP  RH WIND       PRES   REMARKS
FLAG ISLAND    CLEAR     61  54  77 CALM      29.95S
WARROAD        CLEAR     63  57  82 E8        29.96S
ROSEAU         CLEAR     54  48  82 CALM      29.97R
HALLOCK        CLEAR     55  54  94 CALM      29.95R FOG
THF RVR FALLS  CLEAR     59  57  94 N3        29.95S
BAUDETTE       CLEAR     56  52  86 NE3       29.95R
WASKISH        CLEAR     55  54  94 NE6       29.95R
CROOKSTON      CLEAR     55  55 100 CALM      29.95S FOG
$$
  *****  WEATHER ACROSS CENTRAL AND WEST MINNESOTA  *****

CITY           SKY/WX    TMP DP  RH WIND       PRES   REMARKS
FOSSTON        CLEAR     54  52  94 CALM      29.95S FOG
BEMIDJI        CLEAR     53  51  95 CALM      29.94R
PARK RAPIDS    CLEAR     58  55  90 NW3       29.93S
ELBOW LAKE     FAIR      64  62  92 NE5       29.91F
WADENA         CLEAR     57  55  94 CALM      29.93S
DETROIT LAKES  CLEAR     61  59  94 CALM      29.95S
MOORHEAD       PTCLDY    59  57  94 N3        29.93F
FERGUS FALLS   PTCLDY    63  63 100 NE3       29.92S
MORRIS MN      PTCLDY    63  61  94 N6        29.89F FOG
STAPLES        CLEAR     57  55  94 CALM      29.92F
$$
  *****  WEATHER ELSEWHERE ACROSS MINNESOTA  *****

CITY           SKY/WX    TMP DP  RH WIND       PRES   REMARKS
DULUTH         MOCLDY    61  56  83 NE6       29.89R
INTRNTL FALLS  PTCLDY    55  51  86 NE5       29.94F
ELY            CLOUDY    57  52  82 N5        29.92S
CLOQUET        PTCLDY    57  54  88 N7        29.89S
WHEATON        MOCLDY    61  57  88 CALM      29.92F
BRAINERD       CLEAR     60  56  86 CALM      29.92R
HIBBING        CLEAR     56  54  93 N3        29.91S
ALEXANDRIA     CLEAR     64  60  87 NE7       29.94R
SAINT CLOUD    CLEAR     60  58  92 N3        29.89R
MINNEAPOLIS    CLEAR     64  62  93 CALM      29.85S
$$

  *****  WEATHER ACROSS SOUTH DAKOTA  *****

CITY           SKY/WX    TMP DP  RH WIND       PRES   REMARKS
SIOUX FALLS    CLOUDY    65  62  90 CALM      29.92F
BROOKINGS      PTCLDY    59  55  88 W5        29.95R
WATERTOWN      PTCLDY    63  60  90 N3        29.94R
HURON          CLOUDY    69  64  84 W7        29.95R
SISSETON         N/A     62  60  93 N6        29.91S
ABERDEEN       MOCLDY    65  61  87 CALM      29.94S
MITCHELL       MOCLDY    71  65  81 CALM      29.94R
PIERRE         MOCLDY    68  61  78 NE12      29.90S
MOBRIDGE       MOCLDY    72  63  73 E8        29.91R
RAPID CITY     CLEAR     71  56  58 SW9       29.99F
$$

  *****  SOME WEATHER IN NEARBY STATES *****

CITY           SKY/WX    TMP DP  RH WIND       PRES   REMARKS
GLASGOW MT     NOT AVBL
GREAT FALLS MT LGT RAIN  68  61  78 S10       30.00F
CHEYENNE WY    PTCLDY    59  45  59 W12       30.24F
SCOTTSBLUFF NE CLEAR     63  55  75 CALM      30.09F
OMAHA NE       CLOUDY    68  64  87 SE5       29.91F
DES MOINES IA  CLOUDY    68  62  81 W5        29.86S
DAVENPORT IA   PTCLDY    62  60  93 W6        29.81F
CHICAGO IL     CLOUDY    65  63  93 W3        29.76F
EAU CLAIRE WI  PTCLDY    54  53  97 CALM      29.82S FOG
LA CROSSE WI   FOG       60  60 100 N6        29.82S VSB 1
$$

  *****  SOME NATIONAL WEATHER *****

CITY           SKY/WX    TMP DP  RH WIND       PRES   REMARKS
LA GUARDIA NY  PTCLDY    71  57  61 CALM      29.95S
RALEIGH NC     PTCLDY    70  61  73 CALM      29.93S
ATLANTA GA     MOCLDY    74  66  76 SW8       30.01S
NEW ORLEANS LA CLOUDY    78  70  76 SW7       30.04F
OKLAHOMA CITY  PTCLDY    70  66  87 W8        30.00F
ALBUQUERQUE NM PTCLDY    76  46  34 E17       30.23R
SALT LAKE CITY MOCLDY    84  53  34 SE7       30.01S
LOS ANGELES CA PTCLDY    67  60  78 NW5       29.90F
BOISE ID       MOCLDY    86  54  33 SE3       29.95R
SEATTLE WA     CLEAR     63  57  81 SW7       30.07S
$$

*** WEATHER ACROSS MANITOBA...SASKATCHEWAN AND ONTARIO ***
                ***ONTARIO***

CITY           SKY/WX    TMP DP  RH WIND       PRES   REMARKS
GERALDTON      MOCLDY    43  39  87 NE6       29.96R
THUNDER BAY    CLOUDY    54  48  82 N8        29.91S
SIOUX LOOKOUT  PTCLDY    45  43  93 E3        29.99S
TORONTO        MOCLDY    61  57  88 E2        29.86R
BIG TROUT LK   CLEAR     39  39 100 S5        30.03F
PICKLE LAKE    NOT AVBL
DRYDEN         CLEAR     52  50  93 E2        29.98S
KENORA         CLEAR     55  54  94 E7        29.98R
$$
                *** MANITOBA***

CITY           SKY/WX    TMP DP  RH WIND       PRES   REMARKS
BRANDON        CLOUDY    57  57 100 NE8       29.99S
DAUPHIN        CLEAR     55  54  94 CALM      29.99S FOG
ISLAND LAKE    PTCLDY    50  45  81 VRB2      30.02S
PILOT MOUND      N/A     59  57  94 NE6         N/A
THE PAS        CLEAR     55  54  94 S7        29.98F
THOMPSON       PTCLDY    45  43  93 CALM      30.00S
WINNIPEG       CLEAR     57  55  94 NE5       29.98R
LYNN LAKE      MOCLDY    55  54  94 S6        29.96F
CHURCHILL      PTCLDY    48  45  87 S8        29.94F
GILLAM         PTCLDY    45  37  76 S6        30.02S
$$
                ***SASKATCHEWAN***

CITY           SKY/WX    TMP DP  RH WIND       PRES   REMARKS
ESTEVAN          N/A     63  59  88 N5        29.97F SMOKE
KINDERSLEY     CLOUDY    61  59  94 NE9       29.99F
LLOYDMINSTER   CLOUDY    61  59  94 W8        30.02F
PRINCE ALBERT    N/A     57  57 100 NE3       29.98R SMOKE
REGINA         LGT RAIN  61  59  94 VRB2      30.00S SMOKE
YORKTON        FOG       57  55  94 CALM      29.99R VSB 1
N. BATTLEFORD  CLOUDY    63  59  88 W6        30.02R
LA RONGE       SMOKE     54  52  94 SW3       29.94S VSB 3/4
SASKATOON      CLOUDY    61  57  88 CALM      30.01R SMOKE
SWIFT CURRENT  LGT RAIN  63  52  67 E3        29.99F
$$
NOTE: THESE ARE AUTOMATED STATIONS WITH LIMITED QUALITY CONTROL
      "FAIR" INDICATES FEW OR NO CLOUDS BELOW 12,000 FEET WITH NO
      SIGNIFICANT WEATHER AND/OR OBSTRUCTIONS TO VISIBILITY.
      SKY/WX - SKY CONDITION AND SIGNIFICANT WEATHER.
      TMP - AIR TEMPERATURE.    DP   - DEWPOINT TEMPERATURE.
      RH  - RELATIVE HUMIDITY.  PRES - PRESSURE.
      HX  - HEAT INDEX.         WCI  - WIND CHILL INDEX.
$


USA.gov is the U.S. government's official web portal to all federal, state and local government web resources and services.